Tracking 28126 objects as of 2-Oct-2023
HD Live streaming from Space Station
objects crossing your sky now

H-2A R/B

Track H-2A R/B now!
10-day predictions
H-2A R/B is classified as:


NORAD ID: 43496
Int'l Code: 2018-052B
Perigee: 387.3 km
Apogee: 392.5 km
Inclination: 97.2 °
Period: 92.2 minutes
Semi major axis: 6760 km
RCS: Unknown
Launch date: June 12, 2018
Source: Japan (JPN)
Launch site: TANEGASHIMA SPACE CENTER (TNSTA)

Note: This is a ROCKET BODY
Your satellite tracking list
Your tracking list is empty




NASA's NSSDC Master Catalog

Two Line Element Set (TLE):
1 43496U 18052B   23237.95810308 0.00075600  00000-0  87952-3 0    08
2 43496  97.1948 330.1535 0003783  89.1552 270.8447 15.61696040    07
Source of the keplerian elements: McCants